Other Surface Observations
Issued by NWS Upton, NY

Home | Current Version | Previous Version | Text Only | Print | Product List | Glossary On
Versions: 1 2 3 4 5 6 7 8 9 10 11 12 13 14 15 16 17 18 19 20 21 22 23 24 25 26 27 28 29 30 31 32 33 34 35 36 37 38 39 40 41 42 43 44 45 46 47 48 49 50
000
SXUS51 KOKX 190557
OSOOKX
New York City Metropolitan Area Weather Roundup
National Weather Service New York NY
100 AM EST MON FEB 19 2018

CITY           SKY/WX    TMP DP  RH WIND       PRES   REMARKS
Central Park   FAIR      39  22  50 E3        30.54S
LaGuardia Arpt FAIR      34  28  79 NE5       30.53R WCI  30
Kennedy Intl   FAIR      30  26  85 E5        30.54S WCI  25
Newark Liberty FAIR      34  26  72 CALM      30.52S
Teterboro Arpt FAIR      31  25  78 CALM      30.52S
Bronx Bot Gard   N/A     32  25  74 E1        30.53S
Bronx Lehman C   N/A     36  27  69 E3          N/A
Queens College   N/A     37  25  60 SE3         N/A
Breezy Point     N/A     37 N/A N/A SE6         N/A  WCI  33
Brooklyn Coll    N/A     37  28  70 SE3         N/A
Staten Island    N/A     37  28  70 SE7         N/A  WCI  32

>>>>>>>>>>>>>>>>>>>>>>>>>>>>>>>>> KEY <<<<<<<<<<<<<<<<<<<<<<<<<<<<<<<
> SKY/WX - Sky Condition/Present    : R : WCI - Wind Chill Index    <
>          Weather                  : E : VSB - Visibility in Miles <
> TMP    - Temperature in Deg F     : M : HX  - Heat Index          <
> DP     - Dew Point Temperature    : A : TC  - Temperature in      <
> RH     - Relative Humidity        : R :       Celsius             <
> WIND   - Direction/Speed (mph)    : K : VRB - Variable Wind Dir   <
> PRES   - Pressure (in Hg)         : S :                           <
>>>>>>>>>>>>>>>>>>>>>>>>>>>>>>>>> KEY <<<<<<<<<<<<<<<<<<<<<<<<<<<<<<<




USA.gov is the U.S. government's official web portal to all federal, state and local government web resources and services.